Location: Newark
(26.8229°N, 81.7649°W)
Time: 01:07:48
(UTC+00:00)

Hubble Space Telescope - Pass Details

Date: 01 February 2020
Orbit: 536 x 540 km, 28.5° (Epoch: 25 February)

Event Time Altitude Azimuth Distance (km) Brightness Sun altitude
Exits shadow 10:00:38 30° 99° (E) 967 2.6 -29.6°
Drops below altitude 10° 10:02:55 10° 85° (E) 1,777 4.3 -29.1°
Sets 10:05:12 0° 80° (E) 2,669 5.4 -28.6°
